Flag for Germany Weather past 2 weeks in Cottbus, Brandenburg, Germany

Now
62 °F

Overcast.


Feels Like: 62 °F
Forecast: 49 / 60 °F
Wind: 5 mph from West

Location: Cottbus

Current Time: Oct 20, 2014 at 3:31:37 PM

Latest Report: Oct 20, 2014 at 3:00 PM


Visibility: 34 mi

Pressure: 29.92 "Hg

Humidity: 64%

Dew point: 50 °F

Location of CottbusLocation

Historic Weather in Cottbus — Graph

°F

Cottbus temperature yesterday

Maximum temperature yesterday: 74 °F (at 3:00 PM)
Minimum temperature yesterday: 53 °F (at 6:00 AM)
Average temperature yesterday: 62 °F

Past Weeks' High & Low Weather Summary

 TemperatureHumidityPressure
High76 °F (Oct 9, 3:00 PM)100% (Oct 12, 5:00 AM)30.25 "Hg (Oct 12, 5:00 AM)
Low44 °F (Oct 16, 2:00 AM)49% (Oct 9, 3:00 PM)29.71 "Hg (Oct 15, 4:00 PM)
Average59 °F83%29.91 "Hg
* Reported Oct 5 2:00 PM — Oct 20 2:00 PM, Cottbus, Weather by CustomWeather, © 2014

Note: Actual official high and low records may vary slightly from our data, if they occured in-between our weather recording intervals... More about our weather records

Advertising

Cottbus weather history for previous 24 hours

 ConditionsComfort  
Time TempWeatherWind HumidityBarometerVisibility
2:00 PM
Oct 20
62 °FOvercast.7 mph63%29.92 "Hg31 mi
1:00 PM63 °FOvercast.7 mph63%29.93 "Hg28 mi
12:00 PM60 °FOvercast.6 mph69%29.95 "Hg28 mi
11:00 AM60 °FOvercast.7 mph71%29.95 "Hg25 mi
10:00 AM58 °FOvercast.6 mph78%29.95 "Hg19 mi
9:00 AM56 °FLow clouds.3 mph93%29.94 "Hg16 mi
8:00 AM53 °FOvercast.2 mph96%29.92 "Hg19 mi
7:00 AM54 °FClear.3 mph95%29.92 "Hg31 mi
5:00 AM57 °FOvercast.3 mph92%29.93 "Hg31 mi
4:00 AM57 °FOvercast.3 mph92%29.93 "Hg37 mi
3:00 AM58 °FLight rain. Overcast.5 mph88%29.93 "Hg8 mi
2:00 AM63 °FRain. Low clouds.5 mph81%29.92 "Hg1 mi
1:00 AM64 °FPassing clouds.6 mph80%29.90 "Hg17 mi
12:00 AM64 °FClear.6 mph77%29.90 "Hg18 mi
11:00 PM
Oct 19
65 °FPassing clouds.6 mph75%29.90 "Hg17 mi
10:00 PM63 °FPassing clouds.3 mph79%29.90 "Hg15 mi
9:00 PM64 °FClear.5 mph77%29.92 "Hg14 mi
8:00 PM64 °FClear.3 mph78%29.93 "Hg15 mi
7:00 PM64 °FClear.2 mph80%29.94 "Hg12 mi
6:00 PM66 °FSunny.3 mph73%29.93 "Hg12 mi
5:00 PM71 °FSunny.5 mph64%29.95 "Hg17 mi
4:00 PM71 °FScattered clouds.6 mph61%29.96 "Hg17 mi
3:00 PM74 °FPartly sunny.6 mph56%29.98 "Hg25 mi
Weather by CustomWeather, © 2014

See weather overviewHow to use our weather pages